星链-4431 (STARLINK-4431 )

导读

STARLINK-4431是美国太空探索技术公司(SpaceX)星链星座的互联网卫星,于2022年8月12日由猎鹰9号火箭发射,属于星链Group 4-16组网任务。该卫星运行在近地轨道,当前高度约548公里,质量约297千克,展开后宽度9米,采用氪离子推进与自主规避技术,为全球提供低延迟高速卫星互联网服务,是星链全球星座组网的重要组成部分。

基本信息
目录编号:
53486
目录名称:
STARLINK-4431
国际标识:
2022-099X
轨道中心:
EARTH
卫星名称:
星链-4431
卫星全名:
星链-4431 (STARLINK-4431 )
卫星状态:
在轨 (已飞行1484 天)
发射日期:
2022-08-12 UTC
国别 :
美国 (US)
星等 :
--
轨道信息
数据来源 国际轨道数据
星历时间: 2026-09-03T15:26:07+0800
22小时前
查看轨道信息
半长轴: 6833.219km
偏心率: 0.0000696
轨道倾角: 97.533°
近地点辐角 100.281°
升交点赤经 13.775°
平近点角 259.852°
近地点: 454.606km
远地点: 455.558km
周期: 93.691分钟
每日圈数: 15.36968
详细信息
固有亮度:
5
最大亮度:
2.5
卫星平台:
Starlink v1.5
覆盖范围:
全球
运营商:
太空探索技术公司
运营商所在国:
美国
制造商(研发单位):
太空探索技术公司
制造商所在国:
美国
使用方式:
暂无
卫星简介
星链(Starlink)计划是由太空探索技术公司(SpaceX)提出的一个巨型低轨卫星互联网星座项目,计划在2019年至2024年间在太空搭建由约1.2万颗卫星组成的“星链”网络,其中1584颗将部署在地球上空550千米处的近地轨道,并从2020年开始工作。该卫星仍在工作。
2D轨道图
3D轨道图
轨道高度分析图
轨道倾角分析图
轨道综合分析图
查看轨道综合分析图
交会数据列表
事件ID 空间交会对象 最接近时刻(TCA) 交会距离 交会风险概率(CRP) 交会风险指数(CRI) 操作
CDM_260905-043105-348606-607121
2026-09-05T
04:31:08+0000
2.621 km
极远距离
1.49019E-6 低风险 0.38
CDM_260901-095405-267605-348621
2026-09-01T
09:54:34+0000
2.710 km
极远距离
1.177906E-6 低风险 0.36